Back to catalog

XSAT

AliveScienceSSO
NORAD 37389·PAYLOAD·🇸🇬 Singapore

Launched Apr 20, 2011 from Satish Dhawan Space Centre

Loading…

Next Passes (next 24 hours)

TLE

FreshSource: Space-Track

Epoch: Sep 14, 2026, 14:18 UTC

1 37389U 11015C   26257.59636443  .00000008  00000-0  20988-4 0  9999
2 37389  98.3623 230.4064 0015289  80.5300 279.7607 14.25227883800416

Track XSAT in real time with AllMySat

Download on the App Store